Sheridan, WY (82801)

7:50 AM MDT on August 28, 2015 (GMT -0600)
North Airport Area | | Change Station
CLOSE
Current Station
Personal Weather Station
Location: Sheridan, WY
Elevation: 3917 ft
Nearby Weather Stations

Elev 3917 ft 44.78 °N, 106.97 °W | Updated 9 minutes ago

Clear
Clear
54.9 °F
Feels Like 54.9 °F
N
0.0
Wind Variable Wind from South

Today
High -- | Low -- °F
--% Chance of Precip.
Yesterday
High -- | Low -- °F
Precip. -- in
6:25 AM 7:52 PM
Waxing Gibbous, 98% visible
Pressure 30.02 in
Visibility 8.0 miles
Clouds Clear
Dew Point 45 °F
Humidity 69%
Rainfall 0.00 in
Snow Depth Not available.
UV 0 out of 12
Pollen 9.00 out of 12
Air Quality Not available.
Flu Activity Not available.
METAR KSHR 281253Z AUTO 00000KT 8SM CLR 12/07 A3010 RMK AO2 SLP165 T01220067
Pressure 30.02 in
Visibility 8.0 miles
Clouds Clear
Dew Point 45 °F
Humidity 69%
Rainfall 0.00 in
Snow Depth Not available.
UV 0 out of 12
Pollen 9.00 out of 12
Air Quality Not available.
Flu Activity Not available.
METAR KSHR 281253Z AUTO 00000KT 8SM CLR 12/07 A3010 RMK AO2 SLP165 T01220067

10-Day Weather Forecast

×

Almanac

Astronomy

Aug. 28, 2015 Rise Set
Actual Time
Civil Twilight
Nautical Twilight
Astronomical Twilight
Moon
Length of Visible Light
Length of Day
Tomorrow will be .
, % of the Moon is Illuminated

Today's Extremes

State Highs State Lows

Community

WunderPhotos

Upload Photos

1,850,377 photos uploaded!

WunderBlogs® & News

Nearby

Air Quality

  Air Quality AQ Index Pollutant
Not available.

Snow Depth

Station Depth Elevation

Earthquake Activity

City Distance Mag. Time & Date
Minimum magnitude displayed is 2.5.

Coastal Water Temperatures

Place Temperature

Stations

Nearby Weather Stations

Station Location Temp. Windchill Dew Point Humidity Wind Precip. Elev Updated Type